SCP
0 0 0 0 0 0 0 0 0 0 0 0 0 0 1 1 1 1 1 1 1 1 1 1 1 1 1 1 1 1 1 1 1 1 1 1 1 0 0 0 0 0 0 0
0 0 0 0 0 0 0 0 0 0 0 0 0 0 0 1 1 1 1 1 1 1 1 1 1 1 1 1 2 1 1 1 1 1 1 1 0 0 0 0 0 0 0 0
0 0 0 0 0 0 0 0 0 0 0 0 0 0 0 0 0 0 1 1 1 1 1 1 1 1 1 1 2 2 2 1 1 1 1 1 0 0 0 0 0 0 0 0
0 0 0 0 0 0 0 0 0 0 0 0 0 0 0 0 1 0 1 1 1 1 1 1 1 1 2 2 2 2 2 1 1 1 1 1 1 0 0 0 0 0 0 0
0 0 0 0 0 0 0 0 0 0 0 0 0 0 0 0 1 1 1 1 1 1 1 1 1 2 2 2 2 1 1 1 1 1 1 1 1 0 0 0 0 0 0 0
0 0 0 0 0 0 0 0 0 0 0 0 0 0 0 0 0 1 1 1 1 1 1 1 1 2 3 2 2 1 1 1 1 1 2 1 1 0 0 0 0 0 0 0
0 0 0 0 0 0 0 0 0 0 0 0 0 0 0 0 0 1 1 1 1 1 1 1 2 3 3 3 2 2 2 2 2 2 2 2 1 1 1 0 0 0 0 0
0 1 1 1 0 0 0 0 0 0 0 0 0 0 0 0 0 0 1 1 1 1 1 1 2 2 3 3 3 2 3 3 3 2 2 2 1 1 1 0 0 0 0 0
0 0 0 0 0 0 0 0 0 0 0 0 0 0 0 0 0 0 0 1 1 1 1 2 2 2 2 3 3 2 2 3 3 2 2 1 1 1 2 3 2 0 0 0
0 0 0 0 0 0 0 0 0 0 0 0 0 0 0 0 0 0 0 0 1 1 1 1 2 2 2 2 2 2 2 2 2 2 2 1 1 0 3 6 3 0 0 0
0 0 0 0 0 0 0 0 0 0 0 0 0 0 0 0 1 1 1 0 0 0 1 1 2 2 3 2 2 2 2 2 2 2 2 2 1 0 2 3 2 0 0 0
0 0 0 0 0 0 0 0 0 0 0 0 0 0 0 0 0 1 1 1 1 0 0 1 1 2 3 2 2 1 2 2 2 3 3 3 2 1 1 1 1 1 1 0
0 0 0 0 0 0 0 0 0 0 0 0 0 0 0 0 0 1 1 1 1 0 0 0 1 2 3 2 1 1 2 2 2 2 3 3 2 2 2 1 1 1 1 1
0 0 0 0 0 0 0 0 0 0 0 0 0 0 0 0 0 0 1 1 1 1 0 1 1 1 2 2 1 1 1 2 2 2 2 2 2 2 1 1 1 1 1 1
0 0 0 0 0 0 0 0 0 0 0 0 0 0 0 0 0 0 0 1 1 1 1 1 1 1 2 2 2 1 1 2 2 2 2 2 2 1 1 1 1 1 1 0
0 0 0 0 0 0 0 0 0 0 0 0 0 0 0 0 0 0 0 1 1 1 1 1 1 1 2 2 1 1 2 2 2 2 2 2 2 2 1 1 1 0 0 0
0 0 0 0 0 0 0 0 0 0 0 0 0 0 0 0 0 0 0 0 1 1 1 1 1 1 1 1 1 1 1 2 2 2 2 2 2 2 1 1 1 0 0 0
0 0 0 0 0 0 0 0 0 0 0 0 0 0 0 0 0 0 0 0 0 1 1 1 1 1 1 1 1 1 1 2 2 2 2 2 2 1 1 1 1 0 0 0
0 0 0 0 0 0 0 0 0 0 0 0 0 0 0 0 0 0 0 0 0 0 1 1 1 1 1 1 1 1 1 1 2 2 2 2 1 1 1 1 1 1 0 0
0 0 0 0 0 0 0 0 0 0 0 0 0 0 0 0 0 0 0 0 0 0 1 1 1 1 1 1 1 1 1 1 2 2 3 2 2 1 1 1 1 1 1 1
0 0 0 0 0 0 0 0 0 0 0 0 0 0 0 0 0 0 0 0 0 0 1 1 1 1 1 1 1 1 1 1 1 2 3 3 2 2 2 2 1 1 1 1
0 0 0 0 0 0 0 0 0 0 0 0 0 0 0 0 0 0 0 0 0 1 1 1 1 1 1 1 1 1 1 1 1 2 3 3 3 3 2 2 1 1 1 1
0 0 0 0 0 0 0 0 0 0 0 0 0 0 0 0 0 0 0 0 1 1 1 1 1 1 1 1 1 1 1 1 1 2 3 3 4 3 2 2 1 1 1 1
0 0 0 0 0 0 0 0 0 0 0 0 0 0 0 0 0 0 0 1 1 1 1 1 1 1 1 1 1 1 1 1 1 2 2 4 4 4 3 2 1 1 1 1
0 0 0 0 0 0 0 0 0 0 0 0 0 0 0 0 0 0 1 1 1 1 1 1 1 1 1 1 1 1 1 1 1 1 2 4 5 4 3 2 2 1 1 1
0 0 0 0 0 0 0 0 0 0 0 0 0 0 0 0 0 0 1 1 1 1 1 1 1 1 1 1 1 1 1 1 1 1 2 3 5 5 4 2 2 1 1 1
Wind_Speed
7 5 5 6 6 3 2 2 3 5 6 5 5 7 9 9 8 8 10 10 10 9 8 7 6 6 6 6 6 6 6 5 3 2 2 2 2 2 3 3 4 4 5 5
5 5 6 6 5 5 3 4 3 5 6 4 5 6 8 10 10 8 9 10 10 9 9 9 7 6 6 6 6 6 5 5 4 2 2 2 2 2 3 3 3 4 4 4
5 3 5 6 6 6 5 4 4 4 4 5 4 5 8 10 9 9 8 8 10 10 11 10 8 7 6 6 5 5 5 6 4 3 3 3 2 1 2 2 2 3 4 4
4 4 4 5 4 4 4 3 3 4 4 4 6 3 7 11 10 10 9 8 9 9 10 10 8 8 7 6 6 6 6 6 5 4 3 3 2 2 2 2 1 2 3 3
4 5 5 5 4 4 2 3 4 5 5 5 6 4 5 11 12 12 11 10 10 10 10 11 9 8 8 7 6 5 6 5 5 5 4 2 2 2 2 2 2 2 3 3
5 4 4 4 4 4 3 4 5 6 5 6 7 5 3 9 14 15 13 11 10 10 10 11 10 9 7 7 6 5 5 5 4 4 5 3 3 2 2 2 2 2 2 2
7 7 5 4 5 5 5 3 2 4 4 5 6 4 3 5 8 12 14 13 12 11 10 9 11 10 8 8 7 6 6 5 4 4 4 4 4 3 3 2 2 2 2 2
7 7 7 6 6 5 7 6 3 2 2 2 4 3 3 6 5 7 10 11 11 11 9 9 10 10 9 9 8 7 7 6 5 4 3 4 4 2 2 2 2 2 2 2
5 5 7 7 6 5 6 6 6 5 5 2 2 4 6 6 6 6 8 10 9 10 10 10 10 10 10 9 9 8 7 6 5 4 3 3 4 3 2 2 3 2 2 3
4 4 7 6 5 7 7 5 3 3 3 3 2 3 3 6 5 6 8 9 9 9 10 10 10 10 10 9 8 8 8 7 6 6 4 3 3 2 2 2 3 3 3 3
5 5 7 8 7 8 8 7 6 4 3 2 1 1 3 6 5 4 6 8 8 9 9 9 9 9 9 9 9 8 8 7 7 6 5 5 3 3 3 2 3 3 3 2
5 5 6 8 8 7 7 7 7 4 3 2 1 1 2 4 4 4 5 6 7 8 8 9 9 9 9 9 9 8 8 7 7 6 6 6 5 4 3 3 3 3 3 3
3 4 4 5 6 7 7 7 7 5 4 3 2 2 4 4 3 3 4 5 6 7 7 8 8 8 8 9 8 8 8 8 7 6 6 6 5 5 4 3 3 3 3 3
4 7 6 6 5 6 8 8 7 6 5 4 3 3 3 4 4 4 4 4 5 7 7 7 7 8 8 8 8 8 8 8 8 7 6 5 5 5 5 4 3 2 3 3
6 8 8 7 6 6 8 9 9 8 8 6 4 4 2 3 4 4 4 4 5 6 6 7 7 7 7 7 7 7 7 8 8 8 7 6 6 5 4 4 4 3 2 3
8 8 9 8 7 7 8 8 9 9 9 7 6 4 1 2 3 4 5 4 4 4 5 6 7 7 8 8 6 7 7 8 8 8 7 6 6 6 5 4 4 4 3 2
8 9 8 7 7 7 9 9 10 9 7 6 6 4 2 3 3 3 3 4 4 4 4 5 5 6 7 8 7 7 7 7 8 8 7 7 6 6 6 5 5 5 4 3
7 7 5 6 7 9 4 4 6 7 7 7 5 3 3 3 3 3 3 3 4 5 4 5 4 5 5 7 8 8 7 7 7 7 8 7 7 6 6 5 5 5 4 4
8 6 5 5 7 7 6 6 7 7 6 5 5 4 3 4 3 2 3 3 3 3 4 4 4 4 4 6 7 8 8 8 7 7 8 8 8 7 7 6 5 4 4 4
9 8 7 5 6 6 4 3 4 4 5 4 4 4 3 4 3 2 3 3 2 2 3 3 3 3 3 4 6 7 7 8 7 8 8 8 8 7 7 6 5 4 4 4
11 10 9 7 7 5 2 2 3 4 1 3 3 3 4 3 2 4 4 3 3 3 3 2 3 3 3 4 5 6 6 6 6 6 7 7 7 7 6 6 5 4 4 4
8 7 9 7 8 5 2 3 2 1 2 3 2 3 3 4 5 5 4 3 3 3 3 2 2 2 2 3 5 6 5 5 6 6 7 7 7 7 6 5 4 4 4 4
6 5 3 4 2 2 1 2 2 1 2 2 2 3 4 4 3 4 3 3 2 2 2 2 2 2 2 3 4 5 5 5 6 6 7 7 7 6 6 6 5 4 4 3
4 5 5 4 3 3 2 2 2 2 2 2 2 3 3 2 3 3 3 3 3 2 2 2 3 3 3 3 4 4 4 6 6 6 6 6 6 6 5 5 5 5 4 4
3 4 4 3 2 2 2 2 2 2 2 2 2 2 2 2 3 3 3 3 3 2 2 2 2 3 3 3 4 4 5 5 5 5 5 5 5 5 5 4 3 4 4 5
5 5 4 2 1 2 2 2 2 1 1 1 0 1 2 2 2 3 3 3 3 3 2 2 2 3 3 3 3 4 5 5 5 5 4 4 4 4 4 4 3 2 3 5
Wind_Direction
190 191 192 198 211 196 181 195 176 158 156 174 181 169 165 170 181 176 168 166 166 161 155 142 147 144 143 131 126 124 119 112 100 77 80 81 67 63 51 44 45 42 38 30
198 203 196 196 195 189 191 206 189 153 162 189 190 181 173 176 184 188 179 173 167 162 155 152 157 147 142 134 133 130 125 119 107 98 96 93 79 78 79 53 37 37 49 28
208 173 173 190 192 194 198 214 195 163 182 218 201 196 183 181 184 186 188 177 167 168 163 159 159 151 147 140 140 139 135 126 125 117 92 81 63 48 79 80 51 32 52 49
210 180 178 191 206 214 212 216 211 192 204 222 213 214 195 179 184 189 190 181 171 172 166 158 159 155 149 145 145 146 140 135 132 123 124 136 137 113 96 107 122 92 65 62
198 184 197 203 214 226 224 211 223 224 235 250 228 235 202 176 185 192 192 187 178 175 168 161 162 159 155 150 148 150 140 136 138 143 136 136 115 117 117 116 109 94 79 69
215 198 210 214 213 212 209 222 231 239 243 252 236 223 197 187 190 187 186 186 180 175 170 164 161 155 153 148 148 150 142 143 150 151 147 148 124 114 113 112 119 119 108 75
206 200 199 205 203 196 208 219 239 225 219 232 210 204 177 173 177 179 180 182 180 174 170 165 161 157 157 154 156 157 151 156 159 164 159 155 150 151 147 143 136 124 107 88
209 193 191 205 216 212 212 216 233 256 253 256 195 182 123 133 141 159 166 169 173 170 167 165 162 159 160 161 164 168 165 163 162 171 170 159 150 149 146 149 129 112 110 108
225 191 181 202 213 231 226 227 256 285 295 274 215 147 127 118 132 148 157 160 168 169 167 165 161 160 162 165 171 177 168 163 170 176 176 159 144 149 157 154 115 107 109 114
258 213 180 187 211 231 249 261 264 265 286 270 232 185 145 133 145 159 160 162 168 168 168 164 164 163 165 167 171 176 168 171 177 176 174 153 144 150 136 117 118 117 108 102
259 245 191 189 208 219 215 228 242 258 269 288 289 47 95 129 140 153 154 156 166 170 168 164 164 165 165 165 169 173 171 173 176 172 164 152 160 151 135 130 126 122 121 128
233 257 220 203 212 235 239 237 237 244 264 269 275 120 93 106 127 142 148 151 159 163 165 161 162 161 162 166 171 174 174 173 171 168 164 160 158 151 153 152 150 149 151 150
235 243 229 210 207 218 231 240 244 248 262 270 262 159 137 117 109 116 131 143 155 157 158 161 163 164 166 169 172 176 178 173 167 164 163 156 157 161 160 156 157 163 153 143
256 254 244 225 222 213 217 229 234 236 243 245 246 220 168 135 128 121 128 143 150 156 162 164 164 164 167 172 173 176 179 170 163 162 162 161 167 160 158 159 155 160 150 141
237 253 258 254 253 239 226 221 223 232 240 244 245 245 215 150 141 135 135 140 151 158 164 165 162 167 169 174 175 175 175 169 164 163 166 169 163 153 157 155 150 142 134 139
227 249 254 253 248 253 242 226 223 228 236 238 253 259 204 146 136 142 150 151 155 164 169 171 169 169 171 175 174 168 169 171 167 166 167 165 161 155 158 154 150 141 135 121
220 237 250 250 238 251 245 228 226 230 234 230 242 241 186 162 163 165 160 158 160 170 173 175 181 179 179 178 173 171 175 170 168 166 161 161 161 157 161 161 152 151 148 146
236 246 250 252 243 246 242 219 218 228 234 230 231 211 203 177 164 154 156 165 175 174 173 179 188 186 185 177 172 174 173 168 172 167 163 162 162 159 158 159 161 161 156 159
235 235 246 254 249 251 240 215 207 219 226 223 217 204 195 166 166 160 149 150 157 168 170 171 181 185 185 180 174 172 171 170 172 168 167 165 162 158 159 167 168 167 164 160
227 235 235 240 246 248 229 172 174 218 225 208 207 188 186 177 181 156 116 119 126 133 146 152 163 177 182 182 173 173 172 170 174 170 167 162 159 159 165 171 168 164 162 163
208 219 227 240 246 254 245 146 164 217 200 135 155 163 178 177 125 108 98 89 99 109 116 132 161 179 186 177 168 170 167 170 167 159 156 155 154 159 162 164 164 163 163 162
214 216 220 225 237 234 181 179 187 103 67 89 108 109 102 94 98 103 105 104 106 112 116 130 159 169 172 165 164 166 168 161 151 150 150 151 154 161 161 157 164 167 162 166
218 227 221 215 206 141 143 103 71 55 47 50 75 83 93 96 104 113 118 119 112 112 133 143 153 151 151 153 155 160 155 146 144 145 150 153 155 157 155 157 164 168 173 179
232 228 223 216 195 167 151 89 47 45 37 32 59 81 93 116 121 123 127 124 122 119 131 145 150 149 148 147 144 146 140 142 143 147 151 152 154 157 159 163 170 175 179 184
287 277 256 238 186 155 116 83 52 49 37 28 46 76 103 119 133 129 131 130 129 126 123 140 151 146 138 136 139 136 139 144 151 155 155 157 158 157 158 158 166 174 180 178
267 264 251 251 249 235 169 142 112 83 52 28 49 99 102 111 125 122 126 126 128 133 134 136 143 142 147 146 144 143 145 154 161 162 163 159 153 151 155 153 139 110 152 163